INTELSAT 25 (IS-25)     
1 33153U 08034A   19257.89037476 -.00000235  00000-0  00000-0 0  9999
2 33153   0.0131 166.0398 0001822  42.8337  73.7402  1.00272504 40991
BADR-6                  
1 33154U 08034B   19257.83000750  .00000133  00000-0  00000-0 0  9995
2 33154   0.0582  29.3604 0003289 102.7536 186.2084  1.00270290 41019
ARIANE 5 DEB [SYLDA]    
1 33155U 08034C   19257.85251187  .00005031  00000-0  13711-2 0  9997
2 33155   1.7545  90.5832 6510631 146.7708 280.6627  3.29504352112977
ARIANE 5 R/B            
1 33156U 08034D   19257.77872299  .00000536  00000-0  46565-3 0  9991
2 33156   1.6823 130.5440 7176895  59.3417 352.1865  2.39655599 95725